Location: Brook Park
(41.3984°N, 81.8046°W)
Time: 14:18:48
(UTC+00:00)

Daily predictions for brighter satellites

Satellite Brightness Start Highest point End
(mag) Time Altitude Azimuth Time Altitude Azimuth Time Altitude Azimuth
Radarsat Rocket 4.1 22:20:11 10° SSE 22:26:03 66° ENE 22:32:31 10° N
USA 281 4.3 22:28:25 10° E 22:33:02 21° NE 22:37:41 10° N
MOS 1-B 4.4 22:27:50 10° SSE 22:33:38 89° ENE 22:39:29 10° NNW
CZ-4B R/B 3.2 22:29:38 10° SSE 22:34:52 58° ENE 22:40:04 10° N
H-2A R/B 3.5 22:32:10 10° S 22:35:54 57° W 22:39:43 10° NNW
ISS -2.8 22:33:05 10° W 22:36:17 40° NNW 22:39:30 10° NE
Landsat 5 3.8 22:32:07 10° N 22:36:32 80° WNW 22:41:01 10° SSW
Cosmos 1939 Rocket 4.3 22:34:02 10° ESE 22:36:32 17° ENE 22:39:03 10° NNE
Cosmos 2237 Rocket 2.2 22:31:55 10° SSW 22:37:31 82° ESE 22:43:11 10° NNE
OE (NEXTSAT) 4.5 22:34:53 10° SW 22:38:19 65° SSE 22:41:40 10° ENE
CORIOLIS 4.2 22:40:57 10° SSE 22:46:14 60° ENE 22:51:35 10° N
CREW DRAGON DEMO-1 DEB 4.4 22:46:16 10° NNW 22:48:33 19° NNE 22:50:09 14° ENE
Nadezhda 1 Rocket 4.2 22:42:18 10° S 22:48:38 84° W 22:55:04 10° N
FengYun 1-2 T 4.4 22:45:03 10° SE 22:50:24 52° ENE 22:55:45 10° N
Cosmos 405 Rocket 3.3 22:46:35 10° NNW 22:50:28 63° W 22:54:24 10° S
H-2A R/B 2.2 22:46:24 10° N 22:50:34 73° WNW 22:54:48 10° SSW
CZ-4B R/B 1.9 22:47:48 10° NNE 22:50:39 33° E 22:53:31 10° SSE
Cosmos 2369 Rocket 3.9 22:49:32 10° NNE 22:52:01 13° NE 22:53:22 12° ENE
Cosmos 1356 3.9 22:49:25 10° N 22:52:36 36° ENE 22:55:47 10° SE
Abrixas rocket 2.5 22:52:03 10° WNW 22:54:45 54° SSW 22:57:27 10° SE
SKYMED 2 4.5 22:52:01 10° NE 22:55:48 28° E 22:59:33 10° SSE
Cosmos 1980 4.1 22:50:24 10° SSW 22:56:02 67° WNW 23:01:44 10° NNE
Cosmos 1633 Rocket 3.7 22:57:01 10° NNE 23:00:57 32° ENE 23:04:51 10° SE
ADEOS Rocket 4.4 22:55:49 10° N 23:03:12 52° WNW 23:10:38 10° SW
X-37B 3.1 23:03:03 10° SSE 23:03:36 10° SE 23:04:09 10° SE
Cosmos 1867 3.6 22:59:01 10° SSW 23:04:25 72° ESE 23:09:40 11° NE
Cosmos 2154 Rocket 4.5 23:01:28 10° NNW 23:07:45 68° W 23:14:01 10° S
Cosmos 1606 2.7 23:03:59 10° S 23:07:52 89° E 23:11:47 10° N
Cosmos 962 Rocket 4.4 23:01:53 10° N 23:08:12 75° E 23:14:23 10° SSE
Cosmos 1933 3.5 23:06:40 10° S 23:10:33 50° E 23:14:30 10° NNE
SAR-Lupe-4 4.2 23:08:16 16° NE 23:10:43 34° E 23:14:01 10° SSE
CZ-2C R/B 3.8 23:09:01 10° ESE 23:13:16 27° ENE 23:17:22 10° NNE
SMAP 3.6 23:08:42 10° S 23:13:17 62° W 23:17:55 10° NNW
Cosmos 1818 4.1 23:08:02 10° NW 23:13:28 64° WSW 23:18:49 10° SSE
Cosmos 1943 Rocket 3.0 23:11:50 10° N 23:16:31 27° NE 23:19:12 19° E
Cosmos 2341 Rocket 4.0 23:12:21 10° N 23:18:40 80° E 23:25:00 10° S
USA 215 3.3 23:12:52 14° NE 23:18:42 89° SE 23:25:15 10° SW
Cosmos 1125 Rocket 4.1 23:14:57 10° NNW 23:20:04 60° WSW 23:25:11 10° S
Cosmos 2297 3.9 23:15:16 10° NNW 23:20:47 49° ENE 23:26:18 10° SE
Cosmos 1782 3.4 23:21:02 10° SSE 23:24:34 32° E 23:25:18 30° ENE
SL-16 R/B 2.1 23:20:42 10° SSW 23:26:19 73° ESE 23:31:22 13° NNE
Meteor 1-4 Rocket 3.2 23:23:08 10° SSE 23:26:25 32° E 23:26:27 32° E
SAR-Lupe-1 4.1 23:25:48 22° NNE 23:27:52 55° E 23:31:23 10° S
BREEZE-M DEB (TANK) 4.2 23:18:12 10° SW 23:29:26 46° SSE 23:31:29 28° E
YAOGAN 1 3.5 23:30:24 27° NE 23:30:24 27° NE 23:33:18 10° N
ERS-2 2.3 23:27:31 10° N 23:31:09 71° WNW 23:34:47 10° SSW
Cosmos 1689 Rocket 2.5 23:32:44 42° SE 23:32:44 42° SE 23:35:09 10° S
Cosmos 2285 Rocket 4.0 23:26:31 10° NNW 23:32:50 58° ENE 23:39:04 10° SE
PSLV R/B 4.0 23:32:06 26° NE 23:34:04 50° E 23:37:59 10° S
SL-24 R/B 3.7 23:32:18 18° NNE 23:35:06 62° E 23:38:46 10° S
BREEZE-M DEB (TANK) 3.0 23:34:04 10° W 23:36:12 29° NNW 23:36:12 29° NNW
Helios 1A Rocket 3.3 23:36:27 38° ENE 23:36:27 38° ENE 23:39:58 10° N
Cosmos 1470 Rocket 3.7 23:33:31 10° N 23:37:40 44° ENE 23:41:46 10° SSE
Cosmos 864 Rocket 4.4 23:31:26 10° N 23:37:44 66° E 23:43:56 10° SSE
SL-8 Rocket 3.9 23:32:01 10° N 23:38:18 86° E 23:44:34 10° S
Meteor 1-26 Rocket 4.3 23:34:35 10° S 23:40:32 70° E 23:46:32 10° NNE
IRS-1C Rocket 4.0 23:36:35 10° SSE 23:41:50 77° ENE 23:47:08 10° N
Cosmos 1515 Rocket 3.7 23:39:01 10° SSE 23:43:10 46° E 23:43:50 43° ENE
BREEZE-M DEB (TANK) 4.1 23:41:54 10° NW 23:42:50 16° NNW 23:42:50 16° NNW
COSMO-SKYMED 1 2.6 23:39:35 10° N 23:43:57 84° WNW 23:48:17 10° SSW
CZ-2D R/B 3.0 23:40:28 10° SSE 23:44:15 71° ENE 23:48:04 10° N
Lacrosse 5 rocket 1.0 23:41:08 10° SW 23:44:48 78° NW 23:45:31 54° NNE
Cosmos 2181 Rocket 4.1 23:38:59 10° S 23:45:26 81° W 23:51:52 10° N
Cosmos 1959 Rocket 4.4 23:40:22 10° N 23:46:46 82° E 23:53:07 10° S
Cosmos 1602 4.2 23:43:15 10° N 23:49:55 17° SSE 23:50:56 10° SSE
Okean-O 2.6 23:44:31 10° SSE 23:48:51 56° ENE 23:53:12 10° N
USA 267 3.4 23:47:07 31° E 23:50:06 53° NNE 23:56:25 10° NW
Cosmos 1821 Rocket 4.4 23:46:33 10° N 23:52:18 38° ENE 23:53:05 37° E
MOS 1 Rocket 3.6 23:51:15 23° NNE 23:54:33 58° E 23:59:52 10° S
